Location: Nairn
(57.5833°N, 3.8667°W)
Time: 22:39:52
(UTC+00:00)

Tiros 1 - Pass Details

Date: 29 November 2020
Orbit: 630 x 663 km, 48.4° (Epoch: 22 January)

Event Time Altitude Azimuth Distance (km) Brightness Sun altitude
Rises 20:14:13 0° 265° (W) 2,987 11.4 -35.4°
Reaches altitude 10° 20:17:14 10° 246° (WSW) 2,068 10.2 -35.8°
Enters shadow 20:17:54 12° 240° (WSW) 1,908 9.9 -35.9°
Maximum altitude 20:20:21 18° 205° (SSW) 1,617 - -36.2°
Drops below altitude 10° 20:23:27 10° 164° (SSE) 2,050 - -36.6°
Sets 20:26:25 0° 145° (SE) 2,950 - -37.0°
